Woodinville, Washington, United States (98072)
Lat: 47.75N, Lon: 122.16W
Wx Zone: WAZ505
Local Info
Past Weather Observations for Monday, November 24, 2014

NOTE: This archive is for the closest National Weather Service station to Woodinville. Information may differ from the station used for current weather conditions.

Click here for Long-term Archive

Time Weather Temperature Dewpoint Humidity Pressure Winds Precip Visibility
23:53
Overcast
Fog
48°F / 9°C 48°F / 9°C 100% 30.09 in
(1019 mb)
S 12.7 mph
(S 20 kph)
- 1/4SM
23:39
Overcast
Fog
48°F / 9°C 46°F / 8°C 94% 30.12 in
(1020 mb)
S 10.4 mph
(S 17 kph)
- 1/4SM
22:53
Overcast
48°F / 9°C 46°F / 8°C 94% 30.09 in
(1019 mb)
S 9.2 mph
(S 15 kph)
- 8SM
22:30
Overcast
48°F / 9°C 46°F / 8°C 94% 30.09 in
(1019 mb)
S 8.1 mph
(S 13 kph)
- 10SM
21:53
Overcast
48°F / 9°C 45°F / 7°C 87% 30.09 in
(1019 mb)
SSE 11.5 mph
(SSE 19 kph)
- 10SM
21:07
Overcast
48°F / 9°C 45°F / 7°C 87% 30.06 in
(1018 mb)
S 17.3 mph
(S 28 kph)
- 10SM
20:53
Mostly Cloudy
48°F / 9°C 45°F / 7°C 87% 30.06 in
(1018 mb)
S 18.4 mph
(S 30 kph)
- 10SM
20:08
Overcast
48°F / 9°C 43°F / 6°C 82% 30.09 in
(1019 mb)
SSE 19.6 mph
(SSE 32 kph)
- 10SM
19:53
Overcast
48°F / 9°C 43°F / 6°C 82% 30.09 in
(1019 mb)
SSE 18.4 mph
(SSE 30 kph)
- 10SM
19:48
Overcast
48°F / 9°C 43°F / 6°C 82% 30.09 in
(1019 mb)
SSE 19.6 mph
(SSE 32 kph)
- 10SM
18:53
Partly Cloudy
46°F / 8°C 41°F / 5°C 82% 30.09 in
(1019 mb)
SSE 16.1 mph
(SSE 26 kph)
- 10SM
17:53
Overcast
46°F / 8°C 43°F / 6°C 87% 30.12 in
(1020 mb)
SSE 13.8 mph
(SSE 22 kph)
0.00 in
(0.00 mm)
10SM
16:53
Overcast
Light Rain
46°F / 8°C 43°F / 6°C 87% 30.15 in
(1021 mb)
SSE 19.6 mph
(SSE 32 kph)
0.01 in
(0.25 mm)
10SM
15:53
Overcast
Light Rain
46°F / 8°C 43°F / 6°C 87% 30.18 in
(1022 mb)
SSE 15 mph
(SSE 24 kph)
0.03 in
(0.76 mm)
10SM
14:53
Overcast
Light Rain
45°F / 7°C 41°F / 5°C 87% 30.21 in
(1023 mb)
SE 11.5 mph
(SE 19 kph)
0.04 in
(1.02 mm)
6SM
13:53
Overcast
Light Rain
46°F / 8°C 39°F / 4°C 76% 30.21 in
(1023 mb)
SSE 17.3 mph
(SSE 28 kph)
0.00 in
(0.00 mm)
10SM
13:39
Overcast
46°F / 8°C 37°F / 3°C 71% 30.21 in
(1023 mb)
SSE 15 mph
(SSE 24 kph)
0.00 in
(0.00 mm)
10SM
12:53
Overcast
46°F / 8°C 37°F / 3°C 71% 30.24 in
(1024 mb)
S 17.3 mph
(S 28 kph)
0.00 in
(0.00 mm)
10SM
12:13
Overcast
46°F / 8°C 36°F / 2°C 66% 30.24 in
(1024 mb)
SSE 18.4 mph
(SSE 30 kph)
- 10SM
11:53
Overcast
46°F / 8°C 36°F / 2°C 66% 30.24 in
(1024 mb)
SSE 17.3 mph
(SSE 28 kph)
- 10SM
10:53
Overcast
45°F / 7°C 37°F / 3°C 76% 30.3 in
(1026 mb)
SSE 15 mph
(SSE 24 kph)
- 10SM
09:53
Overcast
43°F / 6°C 37°F / 3°C 81% 30.3 in
(1026 mb)
SSE 10.4 mph
(SSE 17 kph)
- 10SM
08:53
Overcast
43°F / 6°C 37°F / 3°C 81% 30.33 in
(1027 mb)
SSE 11.5 mph
(SSE 19 kph)
- 10SM
07:53
Mostly Cloudy
43°F / 6°C 37°F / 3°C 81% 30.3 in
(1026 mb)
Variable 5.8 mph
(Variable 9 kph)
- 10SM
06:53
Mostly Cloudy
43°F / 6°C 37°F / 3°C 81% 30.33 in
(1027 mb)
SSE 8.1 mph
(SSE 13 kph)
- 10SM
05:53
Clear
43°F / 6°C 37°F / 3°C 81% 30.33 in
(1027 mb)
SE 6.9 mph
(SE 11 kph)
- 10SM
04:53
Partly Cloudy
43°F / 6°C 39°F / 4°C 87% 30.33 in
(1027 mb)
SE 8.1 mph
(SE 13 kph)
- 10SM
03:53
Overcast
45°F / 7°C 39°F / 4°C 81% 30.36 in
(1028 mb)
Variable 3.5 mph
(Variable 6 kph)
- 10SM
02:53
Clear
45°F / 7°C 39°F / 4°C 81% 30.36 in
(1028 mb)
SSE 8.1 mph
(SSE 13 kph)
- 10SM
01:53
Partly Cloudy
45°F / 7°C 39°F / 4°C 81% 30.36 in
(1028 mb)
SSE 8.1 mph
(SSE 13 kph)
- 10SM
00:53
Partly Cloudy
45°F / 7°C 39°F / 4°C 81% 30.36 in
(1028 mb)
SSE 6.9 mph
(SSE 11 kph)
- 10SM
Time Weather Temperature Dewpoint Humidity Pressure Winds Precip Visibility


Weather for websites

WeatherForYou.com, LLC is not responsible for any damages or problems caused by this service. Current weather conditions are obtained from the closest station including government and personal stations which may have varying degrees of accuracy. Weather forecasts are derived from the NOAA NDFD. Like all things, this site belongs to Jesus Christ... He just trusts me to maintain it. If you have any questions or comments email webmaster@weatherforyou.com

Copyright © 2014, WeatherForYou.com LLC. All rights reserved.